Tracking 19832 objects as of 25-Aug-2019
HD Live streaming from Space Station
objects crossing your sky now

SL-12 R/B(2)

Track SL-12 R/B(2) now!


NORAD ID: 26090
Int'l Code: 2000-011B
Perigee: 6,236.2 km
Apogee: 35,957.8 km
Inclination: 15.8 °
Period: 755.1 minutes
Semi major axis: 27467 km
RCS: 23.8279 m2 (large)
Launch date: February 12, 2000
Source: Commonwealth of Independent States (former USSR) (CIS)
Launch site: TYURATAM MISSILE AND SPACE COMPLEX (TTMTR)

Note: This is a ROCKET BODY
aabbcc
Your satellite tracking list
Your tracking list is empty




NASA's NSSDC Master Catalog

Two Line Element Set (TLE):
1 26090U 00011B   19236.88116281 -.00000029  00000-0  00000+0 0  9996
2 26090  15.7866 158.6741 5410227 138.4027 339.0496  1.90705198136082
Source of the keplerian elements: AFSPC